{"data":{"norad_id":55569,"intl_designator":"2023-020A","name":"STARLINK-5749","alt_names":[],"object_type":"PAYLOAD","status":"ACTIVE","operator":null,"country":"US","launch_date":"2023-02-12","launch_site_code":"AFETR","launch_vehicle":null,"mission":null,"orbit_class":"UNKNOWN","rcs_meters":null,"size_class":null,"mass_kg":null,"dimensions":null,"purposes":["comms"],"wikipedia_slug":null,"has_3d_model":false,"image_url":null,"decayed_at":null,"tle_current":{"epoch":"2026-05-25T03:36:19.344096Z","epoch_age_seconds":58150,"freshness":"FRESH","line1":"1 55569U 23020A   26145.15022389  .00000407  00000+0  25411-4 0  9992","line2":"2 55569  43.0027 297.0495 0001919 279.3291  80.7343 15.25908127181631","mean_motion":15.25908127,"eccentricity":0.0001919,"inclination_deg":43.0027,"raan_deg":297.0495,"arg_perigee_deg":279.3291,"mean_anomaly_deg":80.7343,"bstar":2.5411e-5,"rev_number":18163,"period_min":94.370032803423,"perigee_km":486.74223241347,"apogee_km":489.37747876664,"semimajor_km":6866.1968555901,"source":"CELESTRAK","updated_at":"2026-05-25T13:38:17.833617Z"}}}